Hourly Data Report for October 21, 2013

All times are specified in Local Standard Time (LST). Add 1 hour to adjust for Daylight Saving Time where and when it is observed.

POND INLET A
NUNAVUT

72°41'22.000" N
77°58'08.000" W
61.60 m
2403206
71095
YIO

Download Data

Hourly Data (October 2013)
Hourly Data Report for October 21, 2013
Temp Definition
°C
Dew Point Temp Definition
°C
Rel Hum Definition
%
Wind Dir Definition
10's deg

Wind Spd Definition
km/h
Visibility Definition
km
Stn Press Definition
kPa
Hmdx Definition


Wind Chill Definition


Weather Definition


TIME
00:00 Legend Double Dagger -8.1 -10.0 87 14 17 16.1 101.50   -15 LegendNANA
01:00 Legend Double Dagger -9.1 -10.8 88 14 18 16.1 101.52   -16 LegendNANA
02:00 Legend Double Dagger -10.2 -12.2 85 14 18 16.1 101.53   -18 LegendNANA
03:00 Legend Double Dagger -10.5 -12.6 85 14 18 16.1 101.54   -18 LegendNANA
04:00 Legend Double Dagger -10.0 -11.8 87 14 18 16.1 101.55   -17 LegendNANA
05:00 Legend Double Dagger -10.0 -12.5 82 14 17 16.1 101.57   -17 LegendNANA
06:00 Legend Double Dagger -10.1 -12.3 84 15 18 16.1 101.58   -18 LegendNANA
07:00 Legend Double Dagger -9.8 -12.0 84 16 17 16.1 101.59   -17 LegendNANA
08:00 Legend Double Dagger -11.7 -13.6 86 15 18 16.1 101.59   -20 LegendNANA
09:00 Legend Double Dagger -11.1 -13.4 83 15 18 16.1 101.60   -19 LegendNANA
10:00 Legend Double Dagger -9.8 -12.7 79 15 17 16.1 101.61   -17 LegendNANA
11:00 Legend Double Dagger -9.7 -12.3 82 16 15 16.1 101.62   -16 LegendNANA
12:00 Legend Double Dagger -9.3 -11.4 85 15 13 16.1 101.61   -15 LegendNANA
13:00 Legend Double Dagger -9.3 -11.1 87 15 17 16.1 101.62   -16 LegendNANA
14:00 Legend Double Dagger -10.2 -11.5 90 14 17 16.1 101.64   -17 LegendNANA
15:00 Legend Double Dagger -11.2 -12.7 89 14 17 16.1 101.65   -19 LegendNANA
16:00 Legend Double Dagger -11.0 -12.6 88 15 18 16.1 101.66   -19 LegendNANA
17:00 Legend Double Dagger -10.8 -12.4 88 14 18 16.1 101.66   -18 LegendNANA
18:00 Legend Double Dagger -11.2 -12.4 91 15 17 16.1 101.66   -19 LegendNANA
19:00 Legend Double Dagger -11.0 -12.5 89 14 17 16.1 101.66   -18 LegendNANA
20:00 Legend Double Dagger -10.1 -11.7 88 15 17 16.1 101.66   -17 LegendNANA
21:00 Legend Double Dagger -10.5 -12.3 87 14 17 16.1 101.65   -18 LegendNANA
22:00 Legend Double Dagger -11.2 -13.1 86 15 17 16.1 101.62   -19 LegendNANA
23:00 Legend Double Dagger -11.1 -13.2 85 15 17 16.1 101.61   -19 LegendNANA

Notes on Data Quality.

Legend

  • E = Estimated
  • M = Missing
  • NA = Not Available
  • ‡ = Partner data that is not subject to review by the National Climate Archives
Date modified: